Theta_e
313 313 312 311 309 306 305 305 305 305 305 305 305 305 305 306 306 306 306 307 307 307 307 307 309 309 310 311 311 312 313 313 316 318 321 322 320 319 317 315 314 313 313 315 314 315 314 314 313 313 314 316 317 320 321 320 333 347 345 338 324 316 317 316 319 322 322 320 319 317 318 320 318 317 314 313 317 317 316 315 314 313 312 312 314 316 317 318
312 312 311 310 309 306 304 304 305 305 305 305 305 306 305 306 306 307 307 307 307 308 308 308 309 310 311 312 313 313 313 316 320 319 317 317 317 316 316 314 313 314 315 315 314 314 315 315 313 313 317 318 317 320 322 321 327 338 342 334 322 321 318 314 319 320 318 318 319 318 318 319 318 317 315 314 316 315 319 317 313 315 314 314 315 316 317 317
312 312 310 309 308 307 305 304 304 305 306 306 305 305 306 306 306 307 308 308 309 308 308 309 311 312 313 313 313 313 315 320 322 318 314 315 316 315 314 313 313 314 315 314 314 315 314 315 312 314 319 317 317 320 324 323 320 328 337 327 319 324 319 314 319 318 318 318 319 318 316 318 317 316 315 316 316 315 322 321 317 318 315 315 314 313 316 316
312 311 309 308 307 308 308 307 306 305 306 306 306 306 306 306 306 307 308 308 309 309 310 311 312 313 314 314 314 313 316 321 320 315 313 314 314 314 313 313 314 315 315 315 315 315 315 315 313 316 320 317 322 324 321 321 318 322 330 325 318 319 318 316 317 318 319 319 320 319 316 316 315 315 315 317 317 316 321 322 322 321 315 316 315 312 314 314
311 310 310 310 309 309 310 309 308 306 306 307 307 307 307 307 306 307 307 309 309 310 311 312 314 314 314 314 314 315 317 320 316 314 314 313 313 313 314 314 314 315 315 316 316 316 315 314 315 321 321 317 324 325 317 317 318 319 320 321 321 318 317 317 317 319 318 318 320 318 315 316 315 316 317 317 318 319 321 320 321 319 314 315 314 312 312 312
310 311 310 311 311 311 311 309 307 307 306 306 307 308 308 308 307 308 309 309 310 312 313 314 314 314 314 314 315 317 318 317 315 313 314 314 313 314 314 314 314 315 316 316 316 316 317 317 318 322 322 319 320 320 317 315 318 320 317 317 320 318 318 318 318 319 318 319 320 318 316 315 316 316 317 317 318 318 316 316 316 313 311 312 312 311 312 311
310 310 310 311 311 311 312 311 308 306 306 305 306 307 307 308 308 310 310 310 311 313 314 314 314 314 315 314 317 324 322 318 316 314 314 314 314 314 313 313 314 316 316 316 316 317 320 322 320 320 323 320 317 317 317 316 320 324 319 317 318 317 319 319 319 321 320 319 318 317 315 315 318 316 315 317 317 314 311 310 309 309 309 311 311 311 311 310
311 309 310 311 310 311 311 311 308 307 306 305 306 306 306 307 307 309 310 311 312 314 315 314 315 314 315 316 320 328 325 320 317 313 314 314 313 314 313 314 314 316 317 315 316 317 319 321 317 317 321 318 315 317 315 317 323 323 318 318 319 318 320 320 320 322 321 319 317 316 316 317 319 314 314 319 316 312 310 308 307 308 310 311 314 311 309 309
312 309 309 310 310 309 308 308 308 307 308 306 305 306 307 307 308 309 311 313 313 314 314 314 315 314 317 319 319 320 320 320 317 313 314 313 313 313 313 314 314 316 316 316 316 316 318 319 317 316 318 316 315 316 316 318 321 319 318 319 318 317 318 318 319 321 321 319 317 316 318 319 318 314 315 319 315 312 311 310 311 312 314 315 314 310 307 309
312 311 310 309 309 308 307 309 310 310 312 310 307 306 306 308 308 309 312 314 314 314 314 314 315 315 317 318 317 316 319 320 316 314 314 312 313 313 313 315 315 316 316 316 316 316 318 318 316 315 317 317 315 315 315 316 317 318 318 318 318 318 318 317 319 321 319 318 317 316 319 319 316 314 316 318 313 312 313 313 313 314 316 314 313 309 307 308
311 312 311 309 309 309 310 311 310 311 312 312 310 308 307 307 308 311 313 314 314 313 313 314 315 316 317 317 319 320 319 317 315 314 314 313 313 313 314 315 316 316 316 317 315 315 316 315 313 314 316 316 315 316 315 314 315 316 317 317 320 320 318 318 318 319 316 316 317 317 317 317 313 314 319 318 311 312 314 313 312 314 314 312 313 310 306 307
312 312 312 311 311 311 312 311 311 311 312 312 311 309 308 308 308 311 313 314 314 313 314 315 315 316 317 319 321 321 319 318 315 314 314 314 314 314 314 315 316 316 317 317 316 315 314 314 315 316 317 315 315 317 315 315 315 316 317 317 323 325 321 318 317 317 316 316 318 316 316 318 315 315 319 315 311 312 313 313 313 314 313 312 313 311 307 306
312 312 312 312 312 312 312 312 312 313 312 312 311 310 309 308 309 311 313 313 314 314 314 315 316 316 317 320 321 318 320 320 316 315 316 315 315 315 316 315 315 316 317 317 317 314 312 314 315 316 317 318 318 315 314 315 314 317 316 315 322 325 323 319 315 315 315 315 317 316 318 326 325 318 316 311 310 312 313 313 312 312 312 312 312 312 310 306
312 312 312 312 312 313 312 312 314 314 313 312 312 312 310 309 310 313 314 313 314 314 316 315 316 318 319 322 320 317 321 321 318 316 315 315 315 315 315 315 315 316 317 317 316 314 313 314 314 315 314 316 317 313 318 320 317 318 315 319 323 320 327 328 316 315 316 314 316 316 318 325 326 320 313 310 310 312 313 313 311 312 311 311 311 311 311 306
312 312 312 311 311 312 312 312 314 315 313 313 313 313 311 311 312 313 314 315 315 316 316 316 316 319 322 323 318 317 320 320 319 317 316 316 316 316 316 316 316 316 316 316 316 314 313 314 315 318 314 314 316 317 327 327 325 325 315 325 330 318 329 333 316 315 317 313 313 316 320 320 319 319 313 309 310 312 313 312 311 312 311 310 310 309 310 307
313 312 312 312 311 311 312 312 313 314 313 314 314 313 312 313 314 314 315 316 316 316 318 318 317 317 321 321 318 318 319 319 319 317 316 316 316 316 316 315 315 314 315 314 314 313 314 316 316 317 316 316 321 329 336 329 330 335 321 324 332 321 324 327 317 316 316 315 313 314 321 321 320 317 312 310 310 312 313 312 311 311 310 309 309 308 308 307
314 313 312 312 312 312 312 312 313 313 313 314 314 313 314 316 317 315 316 316 317 318 320 319 317 316 317 317 317 319 318 317 318 317 316 317 317 317 315 314 314 313 314 312 313 314 314 317 316 317 320 319 322 331 334 324 326 335 323 320 329 324 321 324 323 318 314 316 315 313 316 319 319 315 310 310 310 311 313 313 311 311 310 309 309 308 307 306
314 314 313 312 312 312 312 313 314 313 314 314 313 315 317 317 318 317 317 316 316 316 317 317 315 315 316 315 316 319 317 316 317 317 317 318 317 316 315 314 312 313 315 315 314 315 316 320 321 322 323 318 320 325 325 323 328 334 326 322 326 323 320 323 323 318 314 315 315 315 315 315 316 315 313 311 310 312 312 311 311 310 310 309 308 308 307 306
315 314 313 312 312 311 312 313 314 314 315 314 314 316 316 316 317 318 318 317 319 315 314 318 316 314 316 316 318 318 317 317 318 317 317 317 315 315 315 313 315 317 318 318 316 316 321 324 323 323 322 319 319 321 321 324 330 336 332 330 329 325 323 324 324 321 316 315 316 316 315 315 314 314 315 312 310 311 311 311 311 311 310 310 309 308 307 306
315 314 313 313 312 311 312 313 314 315 315 314 316 316 316 320 319 318 320 320 323 319 318 321 317 317 319 318 319 318 317 317 317 317 317 317 315 315 315 313 318 320 319 323 320 316 320 323 323 323 323 321 318 318 319 321 324 328 328 328 329 327 325 324 324 323 317 315 319 317 315 315 314 315 315 312 310 311 311 311 312 311 310 310 309 309 307 306
315 315 314 313 312 312 312 313 315 316 315 314 316 317 320 324 318 317 324 324 320 316 320 322 316 316 317 317 318 316 318 318 315 317 317 316 316 316 317 316 319 321 321 326 322 315 318 322 323 323 320 318 319 319 318 318 319 320 321 323 325 325 323 321 322 321 316 315 322 320 316 315 314 314 314 313 312 312 311 311 311 311 310 310 309 309 308 306
315 315 315 314 312 312 312 314 315 315 314 313 315 317 319 320 315 316 321 324 322 317 318 319 316 317 316 315 317 316 319 321 317 317 316 315 316 316 318 319 321 322 321 322 321 319 320 321 321 319 318 318 319 319 316 318 319 319 320 320 322 324 322 323 324 320 315 316 323 325 320 317 316 315 315 315 315 313 311 310 311 311 310 310 309 309 307 306
316 315 315 314 313 312 313 315 315 314 314 314 314 315 318 318 316 316 316 321 326 321 319 319 318 320 318 316 317 316 319 323 322 320 316 314 317 318 319 319 321 322 320 321 323 324 325 326 322 316 317 319 319 319 318 318 319 320 321 319 322 324 322 325 327 320 317 318 320 324 320 316 317 317 318 317 314 313 312 311 311 311 311 310 309 308 307 306
316 315 314 315 312 312 313 315 316 315 314 314 314 315 318 318 317 317 318 321 323 322 321 320 317 319 320 317 316 317 318 321 323 320 315 315 317 318 318 319 321 321 320 320 322 324 325 327 321 316 319 320 320 321 321 321 323 323 323 321 322 323 322 324 325 322 325 326 320 320 320 321 322 319 319 319 315 313 314 315 313 311 312 311 309 309 307 305
317 316 315 314 313 311 313 315 317 316 315 315 314 315 317 319 317 316 320 323 323 323 320 316 318 320 319 315 315 318 318 320 322 319 315 315 316 318 318 318 321 323 320 319 320 321 322 322 321 320 319 320 321 322 324 326 325 324 324 323 321 322 323 324 324 324 329 335 326 319 325 332 329 323 320 321 319 317 316 316 314 311 312 312 311 309 307 305
317 316 315 315 313 311 313 316 316 316 316 314 314 314 316 318 318 316 321 327 324 323 320 317 319 321 318 317 316 317 320 320 319 317 315 314 315 318 319 318 320 322 321 320 320 320 321 320 323 326 323 322 324 323 326 326 321 324 329 327 322 322 324 324 325 325 329 333 325 320 328 332 326 324 326 325 323 322 320 316 314 313 312 312 310 309 307 305
317 317 316 315 313 312 315 316 315 315 315 314 313 313 315 316 317 315 318 324 321 320 323 319 317 318 319 318 315 317 321 320 317 315 315 315 315 316 320 320 319 320 319 320 323 323 323 321 322 326 326 326 325 324 326 323 322 328 329 328 325 323 324 325 324 325 329 329 323 322 328 328 324 324 328 330 328 328 324 318 315 313 311 311 309 308 306 305
318 317 316 316 313 312 315 315 315 315 315 315 315 313 314 316 316 317 318 319 319 319 324 321 315 315 318 316 315 319 320 319 321 318 313 314 315 316 320 321 320 320 320 322 325 323 323 325 324 324 325 326 326 327 326 322 324 327 326 326 328 326 327 328 324 325 327 326 325 324 324 327 327 324 324 326 326 326 324 321 318 314 311 310 309 308 306 304
317 317 316 316 313 312 314 315 315 315 313 315 317 314 315 316 316 320 320 316 320 323 322 321 318 317 318 316 317 321 319 319 322 318 314 314 315 316 320 321 321 320 319 320 324 324 322 323 323 323 324 325 327 329 326 323 322 323 323 326 328 328 329 331 329 328 328 328 328 326 325 327 329 327 325 323 323 326 323 321 319 316 312 310 309 308 306 304
318 317 317 316 314 312 313 315 315 315 314 314 316 315 316 318 318 321 318 315 321 326 320 319 321 320 319 317 318 321 320 320 318 316 316 316 316 317 317 319 322 325 323 321 324 325 321 317 317 322 323 323 325 323 321 323 320 320 327 331 333 333 332 335 333 328 329 330 328 328 327 327 329 329 327 324 325 326 323 322 321 318 314 310 308 307 306 304
318 317 317 315 314 312 313 315 315 315 316 315 316 316 317 321 323 322 319 314 315 322 319 320 322 320 319 319 321 322 321 320 317 317 319 318 318 320 319 319 323 326 325 324 325 324 321 319 319 321 321 323 325 320 318 321 320 324 335 335 334 334 333 335 332 327 329 330 328 328 326 325 328 329 327 324 323 322 320 322 324 322 317 311 308 306 304 303
318 317 316 315 314 313 313 315 315 315 316 316 317 317 318 323 325 323 318 312 312 322 324 323 322 320 319 321 323 321 321 321 318 318 321 319 319 319 319 322 323 325 327 326 325 324 323 325 323 319 318 322 327 324 321 321 320 326 333 331 329 330 331 332 330 327 328 328 324 323 323 324 325 326 325 324 322 321 320 319 320 322 319 312 308 306 304 302
319 317 317 315 314 313 313 315 315 314 316 317 317 318 320 324 325 323 318 312 316 324 324 323 323 321 321 324 324 321 321 322 319 319 320 319 320 319 319 324 323 327 332 327 323 325 327 326 322 319 319 322 324 324 324 323 323 324 327 329 330 329 330 331 329 327 328 327 322 319 321 324 325 326 323 322 321 322 321 319 319 320 318 313 308 305 304 302
319 318 317 316 315 314 313 315 315 315 316 317 318 320 322 323 323 320 318 314 319 324 323 324 323 321 322 325 326 322 322 324 319 319 322 320 322 322 322 323 321 326 331 326 323 327 330 330 326 322 322 323 321 321 326 326 323 322 324 327 328 330 333 333 330 329 330 328 322 317 322 328 330 328 322 320 320 319 319 317 315 314 312 311 309 305 304 302
319 318 317 316 316 314 313 315 316 316 317 318 319 321 323 323 320 319 318 316 323 326 323 323 323 323 324 326 326 322 324 326 319 319 323 321 323 322 321 321 319 324 329 326 325 325 326 332 329 321 320 321 320 321 325 326 322 322 324 326 327 329 331 331 329 327 326 327 322 319 324 328 328 324 319 319 319 317 318 314 312 313 310 309 308 305 303 302
318 317 317 316 315 314 313 315 316 316 317 319 321 322 322 323 320 319 318 317 323 327 324 322 324 326 326 325 325 322 323 326 322 321 323 321 322 322 320 321 318 319 324 324 327 326 327 331 324 316 319 319 319 322 322 325 326 322 322 324 324 324 326 328 327 322 321 326 325 322 324 325 323 321 319 319 317 317 319 315 313 313 309 307 307 304 303 302
317 317 317 316 315 314 313 315 317 317 318 320 322 322 321 322 320 320 322 320 321 324 324 324 325 326 326 325 325 323 323 325 322 322 324 321 323 323 320 322 320 318 320 323 328 328 328 331 322 317 321 317 315 322 323 322 323 323 325 325 322 322 327 330 330 326 324 327 327 323 325 325 324 325 323 318 317 319 320 318 314 310 307 307 306 303 302 302
317 316 317 316 316 315 313 315 317 316 318 320 321 321 321 321 319 320 324 323 322 324 324 323 322 324 326 326 326 323 323 325 322 322 325 322 324 324 320 322 321 318 318 321 325 326 325 328 323 316 320 316 313 321 325 319 317 322 327 325 323 328 329 327 329 329 328 329 329 326 324 323 323 325 325 321 322 325 321 318 316 312 308 306 304 303 302 301
316 317 318 317 316 315 314 315 316 317 320 321 320 320 321 320 318 320 324 323 321 322 322 321 320 322 325 325 325 323 322 325 322 321 325 323 324 324 319 322 323 318 317 318 322 327 326 327 325 316 315 316 315 320 325 322 316 318 321 320 322 327 327 325 327 329 330 331 330 329 327 325 325 325 326 323 323 325 322 319 317 312 307 305 304 303 301 301
317 319 319 317 316 316 314 315 317 319 321 321 319 320 320 320 318 321 325 322 321 321 319 319 319 321 324 323 324 324 323 323 322 321 325 323 323 323 319 320 323 319 318 318 321 326 324 324 326 318 313 317 320 321 322 323 319 318 320 321 320 321 322 324 325 325 329 331 331 331 328 328 327 324 323 323 322 321 321 320 317 311 306 304 303 302 301 300
317 320 320 317 317 316 315 316 318 320 321 321 319 319 319 320 320 320 322 322 324 325 321 319 319 319 323 323 323 324 323 322 322 321 323 322 322 324 321 320 324 321 319 320 321 324 324 325 328 323 317 320 324 320 318 319 320 319 320 321 320 320 321 324 325 323 324 326 330 330 327 327 329 324 321 323 322 319 316 315 315 312 308 305 303 302 301 300
317 318 317 316 317 316 316 318 319 319 320 319 318 318 319 321 322 321 321 322 325 326 323 323 323 320 321 323 322 323 324 323 322 321 323 321 321 325 324 321 322 320 319 321 321 322 325 327 328 324 319 320 321 317 314 317 318 318 320 321 321 320 321 324 327 324 323 324 325 327 326 325 324 320 319 321 320 317 314 312 312 313 310 306 304 302 301 301
316 316 315 315 317 316 317 320 320 319 319 317 315 317 318 320 321 320 321 322 323 326 325 325 325 322 321 323 323 323 323 323 322 321 322 322 320 323 325 322 320 319 320 323 323 322 324 325 326 325 320 320 321 318 314 315 316 318 321 321 320 320 320 324 327 325 324 324 323 325 326 324 319 318 317 317 316 316 316 313 311 313 312 307 304 303 302 301
314 314 313 314 316 317 319 321 320 318 319 317 315 315 317 318 319 320 321 321 321 325 325 324 325 324 323 325 325 322 322 324 323 321 322 323 320 319 321 321 320 319 321 323 323 321 323 325 327 328 326 324 324 322 318 316 316 319 322 320 318 318 319 322 324 323 323 324 324 325 327 323 320 319 317 317 319 322 322 316 311 313 313 307 304 303 302 301
312 312 311 312 312 314 317 319 318 316 316 317 316 315 316 317 317 318 320 320 320 323 324 324 325 325 325 325 323 321 321 323 324 322 322 322 319 315 315 317 319 320 322 324 322 320 324 327 325 327 329 328 327 326 323 320 317 318 321 320 317 318 319 321 322 322 323 324 324 324 325 322 320 318 316 317 320 324 326 318 311 311 312 307 304 303 302 301
312 311 310 310 310 311 313 315 316 316 314 315 316 315 316 317 317 317 319 320 319 320 323 324 324 324 325 324 324 323 322 322 325 324 322 322 321 316 312 312 315 320 322 323 322 322 325 326 324 325 327 326 327 327 323 322 320 319 320 320 318 318 318 319 321 322 323 324 323 323 323 323 322 321 319 318 321 326 329 323 316 312 310 307 304 303 302 301
311 311 310 310 311 312 313 313 313 313 313 313 314 314 315 316 317 317 318 319 319 319 320 323 323 323 324 324 324 324 323 321 322 323 322 321 320 314 309 310 312 315 318 320 321 323 326 325 323 325 325 325 329 328 322 321 322 321 320 319 318 318 318 319 321 322 323 324 324 323 322 323 323 321 320 321 322 324 326 325 320 312 308 306 305 304 303 302
310 310 311 312 312 312 312 312 311 310 311 313 313 313 315 315 316 318 318 318 319 319 320 321 322 323 323 324 324 324 323 322 321 322 321 320 317 313 311 311 311 311 314 318 319 322 326 324 322 324 323 324 327 325 319 319 321 320 320 319 318 317 318 319 320 321 322 323 323 323 324 324 321 319 321 321 319 318 319 319 315 310 308 307 306 305 304 303
310 310 310 312 312 311 310 311 310 308 309 312 312 312 314 314 315 317 318 318 319 320 320 321 321 322 322 323 324 323 323 323 322 321 320 318 317 316 315 315 314 311 314 317 318 320 324 325 323 322 322 322 324 322 319 319 319 318 319 319 317 317 317 318 319 319 320 321 321 322 323 322 320 321 322 319 315 314 315 314 312 311 310 308 306 306 304 302
310 310 310 311 310 310 309 308 308 308 308 310 312 312 312 313 314 315 317 318 319 319 320 321 320 321 321 322 323 324 323 323 323 322 320 319 317 317 318 319 317 313 312 315 316 317 321 324 321 320 322 322 321 320 319 319 319 319 319 318 316 316 316 317 318 318 319 320 319 320 321 321 321 322 321 317 314 313 314 314 313 311 310 308 307 305 304 303
306 305 307 310 310 309 308 307 307 308 309 310 311 311 310 311 312 314 316 317 318 319 319 321 321 320 320 321 322 323 322 321 323 321 318 319 319 317 318 318 316 313 312 314 316 316 318 320 318 319 323 323 320 320 319 318 318 319 319 318 316 315 315 316 316 317 318 319 319 320 320 319 319 319 317 314 314 314 315 314 312 310 308 307 307 306 304 303
304 303 304 308 311 310 309 308 307 309 310 310 310 310 311 311 311 313 315 316 317 318 318 320 321 321 320 321 321 322 322 322 323 322 318 318 319 319 318 316 313 313 314 314 315 316 316 318 318 319 323 322 320 320 319 317 318 320 321 319 316 314 315 315 316 316 316 317 319 319 319 319 320 319 316 314 312 313 313 312 311 310 308 307 307 306 304 303
Wind_Speed
5 4 5 5 5 7 7 7 7 6 6 6 6 5 5 5 5 5 4 5 5 5 5 5 5 5 6 7 7 8 8 9 7 3 2 3 5 5 4 3 1 0 1 3 5 4 5 6 6 8 6 3 2 1 3 2 2 5 4 4 3 2 2 4 6 6 4 5 5 4 3 7 3 2 2 3 8 5 4 5 3 6 7 7 8 10 9 9
5 4 5 5 5 6 6 6 6 7 6 6 5 6 5 5 5 5 4 5 5 5 5 5 5 5 6 7 8 8 10 8 3 1 1 4 4 4 6 4 2 2 1 2 4 6 5 4 7 8 5 2 2 2 2 2 3 4 3 4 2 5 2 2 6 5 3 6 6 3 2 6 5 3 2 1 0 3 5 4 3 5 5 7 9 10 10 12
5 4 4 5 5 5 5 5 5 6 5 5 6 6 5 5 6 5 5 5 5 5 5 4 5 6 6 7 8 9 10 5 0 1 2 1 4 7 8 6 4 2 2 2 4 5 3 4 6 4 4 2 2 2 3 3 2 2 4 4 3 6 1 1 3 4 4 6 7 2 2 4 4 2 1 4 4 3 3 3 2 2 4 4 5 9 12 13
5 4 4 4 4 5 5 5 4 4 5 5 6 5 5 5 6 6 5 5 4 4 4 4 5 6 7 8 8 9 8 3 0 2 2 7 9 10 9 7 5 3 2 3 4 5 5 5 3 2 3 2 3 3 3 2 2 2 3 3 5 4 3 1 3 3 3 5 7 4 3 2 2 1 2 6 6 3 6 7 7 8 9 8 5 8 11 12
5 4 4 4 3 4 4 4 5 4 5 5 5 5 5 5 6 5 5 4 3 3 3 4 5 6 7 8 8 9 6 4 2 3 6 8 10 10 9 8 5 3 3 5 5 4 5 3 4 5 4 2 4 4 1 3 2 3 2 3 5 4 3 4 4 3 4 4 5 5 3 3 2 0 3 8 6 5 6 7 7 8 10 9 8 9 10 11
5 4 4 3 3 3 3 4 5 5 6 6 6 6 5 5 5 4 3 3 2 3 3 4 5 5 6 7 8 6 2 2 3 6 8 9 10 9 9 7 4 3 3 5 5 6 5 4 5 4 3 3 2 2 0 4 3 3 2 2 2 3 4 3 3 3 4 6 4 4 3 2 3 1 3 7 6 5 3 4 7 8 11 13 12 11 9 9
6 5 4 3 3 3 3 4 5 6 6 6 7 6 6 6 5 3 2 2 3 2 3 4 5 5 5 6 6 3 2 2 5 10 10 9 9 8 7 4 3 3 2 4 7 5 4 6 5 3 4 4 1 2 1 4 5 5 1 2 1 2 4 4 4 3 5 7 5 4 3 3 5 3 1 4 4 2 1 5 10 11 14 14 11 9 9 9
6 6 5 4 4 3 4 4 5 5 5 6 7 7 6 6 5 3 2 2 3 2 3 4 4 4 4 4 2 3 2 3 7 12 11 9 8 7 5 2 2 1 2 5 6 3 3 5 2 2 3 2 2 1 1 4 5 4 2 2 1 1 2 2 3 4 4 5 3 3 2 5 6 3 1 5 4 3 4 7 10 11 12 11 8 8 9 10
7 7 6 6 5 4 4 4 4 3 4 5 6 7 6 5 4 3 3 3 2 3 4 3 3 3 4 2 3 2 2 4 10 13 10 9 8 6 4 1 1 0 3 4 5 4 2 2 1 2 3 2 2 2 1 3 1 2 3 2 1 2 2 1 2 4 4 3 3 3 3 6 4 2 2 5 7 5 5 7 7 9 8 7 7 7 10 10
8 7 7 6 5 3 3 3 3 2 3 5 6 6 6 5 4 3 3 3 3 3 3 3 3 2 2 2 4 1 3 4 11 13 10 10 9 6 4 2 1 2 2 3 4 5 3 3 2 3 5 2 2 1 1 2 2 2 4 2 1 2 3 2 5 6 3 2 4 5 5 5 4 1 3 4 6 6 7 6 5 7 6 6 5 6 10 10
9 8 8 7 4 1 2 3 3 2 3 5 5 6 6 5 4 4 3 3 3 3 4 3 2 2 2 2 4 3 3 6 11 13 11 10 9 7 5 4 3 3 2 2 3 4 3 2 2 3 2 1 1 2 2 2 2 2 3 2 4 5 5 3 5 6 2 2 4 7 4 4 3 1 6 6 7 7 9 7 5 7 6 6 6 5 8 10
10 9 9 9 6 3 3 4 3 3 4 5 5 7 7 6 5 4 3 3 4 4 4 3 2 2 1 2 2 5 5 7 11 12 12 10 9 8 6 4 4 3 3 2 3 3 3 1 3 4 1 2 2 2 0 2 2 1 3 2 6 8 6 5 4 4 5 2 5 7 2 5 3 6 6 5 9 6 8 8 6 7 5 6 6 4 6 8
11 10 10 10 8 7 6 5 5 5 5 6 7 7 7 7 5 4 4 4 5 5 4 3 2 1 2 0 4 6 7 8 10 11 11 10 9 8 6 5 4 3 2 3 3 3 3 2 4 5 2 4 2 1 2 2 2 0 3 2 4 7 6 6 1 4 6 3 5 7 2 6 7 8 4 5 10 8 8 8 6 6 5 5 5 4 5 7
12 11 10 10 9 9 8 7 7 7 7 8 9 8 7 7 6 5 4 5 5 5 4 3 2 2 2 2 4 5 8 9 10 11 11 10 9 7 6 5 4 3 2 2 2 2 2 2 5 5 2 3 2 1 3 5 3 1 2 2 2 2 4 7 1 7 6 3 4 7 2 7 9 8 5 7 9 10 9 8 7 6 6 5 5 5 5 6
13 12 11 11 10 11 11 9 7 8 8 9 9 8 7 5 5 4 5 5 6 5 4 3 3 3 2 4 4 4 8 8 10 12 11 11 10 7 7 7 5 3 2 1 1 1 1 2 5 4 0 2 3 4 3 4 3 2 0 3 3 2 5 9 3 8 7 2 2 6 2 7 10 8 7 8 7 10 10 8 8 7 7 7 5 6 5 5
12 13 13 12 10 10 11 9 7 9 9 8 8 8 6 4 4 4 5 6 6 5 3 2 2 4 1 2 2 4 7 7 9 12 11 11 10 7 8 7 4 3 2 1 2 3 3 4 3 2 2 2 4 5 3 3 3 3 1 3 3 3 3 6 3 4 5 3 2 4 3 4 6 4 5 8 8 9 8 8 9 8 8 8 6 6 5 5
13 12 13 12 10 10 11 9 7 8 6 6 8 6 3 3 3 4 5 6 6 4 4 3 2 3 0 1 1 3 6 8 10 13 13 10 8 8 9 6 3 5 4 4 4 3 3 4 1 0 2 3 3 5 3 2 4 4 0 3 4 4 2 3 4 3 3 5 4 5 5 7 6 3 4 7 8 8 8 10 10 9 8 7 7 6 6 6
13 12 11 11 11 11 10 9 7 6 4 6 6 1 3 4 4 4 6 8 7 5 3 1 3 2 3 3 3 3 5 9 11 13 13 9 9 10 7 4 4 6 5 4 2 2 2 3 2 1 2 2 2 5 3 5 4 3 3 2 3 3 3 4 5 2 5 4 5 6 6 11 11 6 6 8 7 9 11 10 8 8 8 7 7 7 7 7
14 13 12 11 11 11 11 10 7 5 4 6 3 5 6 5 4 3 5 7 5 3 1 3 4 3 3 4 4 4 7 10 11 12 12 10 11 9 5 4 5 6 4 2 1 0 2 3 4 2 1 3 5 7 8 8 7 7 5 4 4 3 4 5 5 5 7 5 5 8 9 12 13 11 9 8 8 9 10 7 6 7 7 7 7 7 7 7
16 15 13 12 11 11 12 10 6 6 5 5 3 5 4 3 2 1 2 3 5 4 2 5 8 3 0 1 5 9 9 8 6 8 11 11 12 8 3 3 6 5 3 4 2 1 3 3 2 5 7 8 9 10 8 5 6 5 4 3 4 4 5 5 5 6 4 5 6 9 10 11 12 12 10 7 7 8 10 9 8 8 8 8 9 9 9 7
18 16 14 13 11 11 13 9 6 6 5 6 4 2 2 4 3 2 3 4 10 11 5 5 6 3 1 3 11 13 8 3 1 4 12 11 11 8 1 2 4 1 2 4 3 1 3 5 7 10 10 9 9 9 7 4 3 2 2 3 4 4 6 6 5 5 1 4 6 6 8 11 12 12 9 5 7 10 13 13 12 11 10 9 10 10 8 6
20 18 16 14 11 12 14 9 7 7 7 7 7 4 3 1 2 1 1 2 10 16 13 6 3 5 4 4 12 12 4 3 1 3 11 11 8 6 2 3 5 3 2 3 3 1 2 5 11 12 6 5 5 6 6 5 5 4 2 2 4 4 4 7 5 4 1 4 5 6 7 10 10 11 8 6 9 11 13 15 15 13 12 11 11 10 9 8
22 19 17 15 13 13 14 10 9 9 10 10 9 7 2 1 3 4 1 0 5 8 9 8 7 7 4 2 10 11 2 5 5 5 12 11 5 5 5 5 5 4 4 5 5 4 4 6 11 9 6 6 5 4 6 4 3 4 4 2 5 4 2 5 5 3 1 2 3 5 8 8 7 7 8 10 11 9 9 12 12 11 12 13 12 11 11 13
24 20 17 16 14 14 15 11 10 12 14 14 15 14 5 4 3 5 2 1 4 4 5 11 9 7 8 6 11 12 4 4 5 6 15 13 5 3 5 6 6 4 4 9 9 7 7 6 4 7 9 8 7 4 6 4 3 5 6 6 6 6 6 6 4 4 4 4 2 4 8 7 6 9 11 8 6 6 6 8 10 10 9 8 8 9 11 12
26 22 19 17 14 15 15 9 11 15 14 12 19 20 10 5 3 6 3 1 4 5 3 7 6 6 12 10 12 11 2 4 4 8 18 16 10 5 3 4 4 5 8 9 8 6 8 5 3 8 7 7 7 6 6 7 5 5 5 9 10 9 8 6 2 4 4 5 4 1 4 7 4 7 12 6 2 6 6 7 12 11 8 8 9 10 10 10
28 25 21 20 16 17 14 7 11 16 13 13 19 19 13 6 1 3 2 3 4 4 1 5 5 8 13 10 10 7 1 5 4 9 20 18 11 5 3 3 1 5 8 6 4 3 5 5 5 7 6 7 7 6 6 7 5 4 6 10 11 8 6 5 1 1 2 5 4 2 1 7 5 5 9 6 4 9 9 8 11 9 8 11 11 10 10 10
29 27 25 22 19 21 15 5 12 16 9 12 17 18 15 10 5 2 2 3 5 4 5 2 2 7 11 11 13 8 2 5 2 6 13 13 9 2 2 6 2 3 4 4 3 3 5 7 5 6 6 7 6 5 6 8 7 5 5 6 8 7 6 5 4 3 4 3 4 1 3 5 9 5 6 6 6 10 12 10 11 9 10 11 10 10 11 12
30 28 27 25 22 26 18 6 14 20 13 4 6 16 15 11 8 1 4 1 4 3 4 1 1 4 5 8 12 7 2 3 5 3 3 5 6 1 2 8 6 6 5 5 5 4 4 8 9 9 6 5 6 5 7 9 5 6 3 6 6 6 5 4 4 3 1 2 4 2 4 3 10 4 1 3 7 12 13 13 14 11 11 10 9 10 10 10
33 30 30 27 23 26 23 13 13 19 21 8 2 13 17 10 7 3 4 3 2 2 2 1 3 2 4 7 7 3 2 2 2 3 1 3 3 2 3 6 5 7 5 5 6 3 1 6 8 9 7 7 6 3 6 10 6 4 5 6 6 5 4 5 4 3 2 3 5 6 5 3 9 3 3 1 5 10 12 12 12 9 10 10 8 8 8 9
35 33 31 28 25 28 28 23 19 16 18 14 4 12 18 9 4 3 2 4 1 0 1 2 3 3 8 11 3 1 3 2 0 2 3 1 1 4 1 2 5 5 2 3 3 3 2 1 2 4 4 6 5 2 2 6 6 5 7 6 6 6 5 4 2 4 2 6 6 9 9 5 6 3 4 4 5 7 8 8 7 4 8 9 8 8 9 10
37 35 33 32 31 32 25 23 28 20 13 16 12 15 15 3 2 5 6 2 1 1 3 1 2 5 12 14 6 3 3 1 1 5 3 1 2 2 1 1 3 3 1 4 3 4 4 2 1 2 3 4 6 5 3 1 4 5 5 5 4 4 5 4 4 3 1 7 5 9 10 9 8 6 3 5 6 5 7 6 7 6 8 9 8 9 9 9
39 36 36 36 33 33 26 19 29 26 13 14 16 12 8 2 2 7 6 2 1 4 6 4 3 6 11 11 8 8 5 2 4 7 6 4 5 6 5 6 5 2 3 5 3 3 2 4 3 2 1 4 6 4 4 4 4 5 5 6 3 2 3 2 3 0 4 7 3 5 6 6 9 9 7 10 12 10 7 6 7 7 7 9 10 9 8 8
41 38 38 39 34 37 32 19 25 29 18 17 15 3 2 6 8 10 9 5 2 2 4 4 4 9 12 9 6 6 4 2 5 6 5 4 5 7 4 4 6 3 2 5 4 2 3 5 2 1 3 3 8 7 3 1 3 5 6 6 5 3 0 3 3 2 4 5 4 2 3 3 5 6 10 15 15 10 5 6 8 7 8 10 11 10 9 9
41 40 40 42 38 39 36 23 23 30 25 20 12 2 6 8 9 13 15 10 3 1 2 4 7 9 10 7 4 6 4 3 6 6 4 5 5 6 4 5 8 3 3 3 3 5 4 6 4 7 4 5 10 9 6 6 5 5 5 6 6 6 4 4 4 4 4 4 4 1 2 3 3 3 7 9 9 6 4 6 6 6 6 7 8 9 10 10
42 42 41 40 38 38 38 29 25 31 27 16 8 8 11 9 8 13 13 8 3 2 2 4 8 7 6 3 2 6 5 2 5 5 4 6 5 7 7 8 11 6 5 4 2 3 4 6 6 4 1 9 11 6 5 7 3 2 2 5 3 5 6 3 3 5 3 2 4 2 4 5 4 6 7 5 6 6 5 5 3 3 3 6 8 9 11 10
43 44 40 38 39 41 42 34 31 35 26 11 6 9 11 11 11 10 7 6 6 5 6 4 4 5 6 3 2 6 3 2 6 5 3 4 3 6 7 7 11 11 8 7 3 3 3 5 5 2 2 6 7 4 4 4 3 2 2 5 3 3 6 3 2 2 2 3 4 4 5 5 3 8 8 3 6 8 6 5 3 2 3 7 8 9 10 11
43 40 35 36 40 44 45 40 38 36 21 7 9 11 10 13 13 8 4 5 6 9 9 4 3 5 7 5 4 7 4 2 5 5 4 3 3 6 8 4 8 16 14 6 2 3 4 3 4 1 1 3 1 3 3 2 4 6 3 6 2 3 2 2 2 1 1 5 5 4 8 5 1 5 5 4 4 10 9 6 4 3 5 7 8 8 9 10
38 29 26 35 43 45 47 46 42 31 12 4 10 12 11 15 16 11 5 5 8 9 8 7 6 6 7 7 6 7 7 4 6 6 4 4 5 7 11 6 6 16 16 6 1 3 3 2 4 1 2 3 3 3 3 4 2 4 4 5 4 1 2 2 2 3 2 4 5 3 6 5 6 5 3 2 7 10 10 7 6 7 9 8 7 8 8 8
26 12 11 30 42 44 49 49 35 18 5 5 11 12 12 16 17 12 7 7 9 9 9 10 8 5 7 8 6 8 9 8 9 7 4 5 5 6 12 9 6 13 15 9 5 2 2 2 3 1 0 1 2 2 4 3 1 3 1 3 3 2 3 3 3 2 2 3 3 3 2 3 6 6 6 9 10 10 10 8 9 11 10 9 8 8 9 10
14 3 5 22 39 45 51 43 20 7 6 8 12 12 13 14 12 10 10 9 8 6 9 13 11 8 7 8 7 8 8 8 9 9 6 6 5 5 9 10 6 9 13 12 8 2 2 3 3 2 2 0 2 4 7 9 6 3 4 5 3 1 2 1 2 2 3 3 3 4 5 5 5 4 7 10 10 10 10 9 10 10 9 9 8 9 9 10
7 4 2 17 42 50 43 24 6 7 10 9 11 14 12 9 6 10 12 8 4 3 5 9 12 10 8 8 8 7 7 6 8 8 5 7 7 5 7 11 10 9 9 9 8 4 3 3 3 2 1 3 5 5 5 7 7 6 7 8 8 6 4 2 4 2 3 3 4 2 6 7 4 3 5 7 7 7 7 8 9 7 7 8 8 9 10 10
4 5 1 16 46 51 29 10 6 9 10 9 13 12 6 2 3 8 11 7 3 3 2 3 9 11 9 8 9 8 8 7 8 8 6 9 11 7 7 11 12 13 12 8 7 5 3 3 3 3 3 5 6 4 2 4 3 3 3 5 7 7 7 6 6 4 2 2 3 2 5 8 3 4 5 5 6 6 6 7 8 6 6 8 7 8 9 9
4 7 1 14 43 42 15 8 12 9 8 11 12 10 5 3 5 6 9 10 7 4 4 3 4 8 9 7 7 9 10 7 9 12 8 8 10 6 6 10 11 13 10 5 2 2 3 3 3 2 2 3 4 4 1 1 2 2 3 4 7 8 8 6 4 4 3 4 3 2 6 7 3 3 4 4 5 5 5 6 8 6 5 7 8 8 8 8
3 5 0 13 39 34 10 8 13 10 10 12 12 13 9 7 8 9 10 14 10 4 5 4 3 6 6 5 6 11 12 8 9 12 9 7 7 2 3 9 12 12 9 6 6 6 4 4 4 2 1 2 3 2 2 1 3 4 4 6 8 8 6 3 1 3 3 7 9 6 9 6 2 3 3 4 4 5 5 5 6 6 5 6 8 7 8 8
1 2 1 6 20 17 6 6 10 9 11 13 13 17 15 9 8 11 11 12 9 6 6 4 3 4 3 4 5 8 13 13 9 9 8 5 3 1 2 4 8 10 6 5 9 9 6 5 6 6 7 8 7 7 5 3 3 2 3 7 10 11 12 7 3 4 6 6 11 10 12 6 1 3 4 5 4 5 6 4 4 6 6 7 8 8 8 8
2 2 1 2 5 5 4 3 4 6 10 12 9 13 18 14 10 11 10 9 10 9 7 2 4 4 2 4 7 8 14 14 6 5 9 7 3 1 0 0 3 5 2 3 9 8 3 4 9 13 13 13 9 5 5 7 6 7 9 11 13 14 14 10 5 8 6 3 7 13 12 10 9 6 6 6 4 5 6 4 4 6 5 5 7 7 7 7
3 2 3 4 2 5 7 6 4 4 7 10 7 7 17 19 12 8 9 10 10 11 9 3 3 6 6 8 9 9 11 9 3 4 9 8 2 1 1 2 1 1 1 6 10 7 4 5 11 14 15 12 6 4 6 10 12 15 15 14 15 14 14 13 13 11 7 4 11 10 7 12 18 12 10 8 6 7 8 7 7 6 5 5 5 6 7 7
3 3 4 4 2 4 8 7 7 7 8 9 7 5 13 19 15 10 10 11 10 10 9 6 8 14 15 14 11 7 7 7 6 7 7 5 4 2 1 1 0 2 2 5 6 4 5 8 10 12 16 12 5 5 7 9 9 10 13 15 16 15 16 17 19 16 10 9 15 7 9 17 20 12 10 10 9 10 9 6 5 5 5 6 7 8 8 8
2 1 2 3 2 4 5 4 5 6 7 8 8 8 10 16 18 13 9 8 9 10 12 13 17 20 18 15 11 9 9 9 11 11 7 5 5 5 3 1 2 1 1 4 4 2 4 6 6 9 15 13 6 5 6 8 6 5 9 14 15 16 19 20 21 19 13 14 19 11 12 20 14 7 8 7 6 6 4 4 5 6 7 7 8 9 9 9
1 0 1 3 3 3 4 3 3 3 3 4 6 7 7 12 19 16 9 10 12 12 15 20 23 20 17 16 13 12 15 16 15 13 11 10 8 7 7 5 4 4 4 4 4 2 4 5 5 7 9 11 8 7 7 8 7 7 10 13 13 13 16 16 17 15 11 16 21 15 16 19 8 4 5 3 4 4 5 5 6 6 8 9 9 9 9 9
2 3 1 3 4 5 6 5 4 4 3 3 4 4 5 9 15 15 11 11 13 12 14 22 25 17 13 15 17 18 21 19 14 10 12 14 11 7 6 5 7 9 7 5 4 3 4 3 3 6 7 9 8 10 9 6 4 8 17 17 12 11 11 13 13 13 14 18 18 13 15 18 7 3 2 2 5 7 7 7 6 6 8 9 10 10 9 10
1 3 2 1 4 6 7 5 5 5 4 5 5 6 6 7 9 9 8 7 10 12 11 17 19 12 9 16 22 23 19 12 6 5 8 9 5 4 3 4 9 11 9 6 3 2 5 5 3 6 8 7 6 11 9 5 3 9 17 15 15 13 14 14 14 16 17 15 12 12 15 13 5 6 5 4 6 7 8 8 7 7 9 9 10 10 10 10
Wind_Direction
190 192 194 190 200 206 200 202 204 203 206 208 206 206 206 201 200 203 208 213 221 235 245 258 272 286 293 299 303 310 320 326 319 285 247 228 229 231 212 213 245 298 65 26 13 19 21 21 360 353 358 5 27 358 348 359 53 57 79 87 95 156 163 176 182 195 174 169 201 229 166 133 182 242 134 33 44 80 61 40 20 21 47 77 99 111 116 135
193 193 195 192 201 208 205 206 208 208 208 205 203 205 207 206 209 208 209 218 228 238 250 264 278 289 296 304 306 316 327 329 318 272 306 265 252 221 193 181 168 141 57 22 21 26 32 358 337 359 29 27 348 353 11 357 58 83 109 89 163 197 193 197 180 196 190 159 173 201 166 155 176 178 133 109 68 125 87 31 15 49 65 80 93 106 116 126
203 203 201 199 200 203 206 208 209 213 212 209 208 208 209 210 212 213 214 220 229 239 257 274 286 295 300 305 310 322 330 336 45 340 351 126 135 141 147 145 135 106 57 31 12 12 14 312 317 1 42 32 336 10 35 13 45 117 107 83 229 210 190 308 172 186 203 154 145 166 175 157 182 181 131 151 169 181 159 173 160 166 170 133 100 103 111 115
215 216 208 206 205 202 202 201 206 214 215 216 213 211 212 213 216 220 224 226 235 247 266 285 291 297 300 304 312 321 335 21 173 271 115 114 118 125 126 124 112 88 56 22 3 351 340 323 339 49 60 29 326 25 51 357 42 85 97 143 211 172 124 238 204 173 148 136 144 148 116 139 214 202 137 138 142 241 237 207 188 188 177 160 141 112 110 110
222 228 216 208 209 209 206 202 206 209 215 218 215 213 212 217 221 222 227 235 250 262 279 290 291 297 300 303 312 319 350 58 223 204 137 125 122 122 115 109 96 77 39 16 5 8 1 1 50 49 59 45 339 31 28 298 76 68 21 196 193 139 137 235 228 189 135 107 111 122 140 174 182 169 151 152 171 231 236 215 189 171 159 155 147 126 112 108
223 230 224 218 221 216 219 219 217 216 217 217 218 219 215 220 222 219 224 239 260 273 284 287 289 295 299 302 314 320 38 89 227 177 151 139 129 123 113 97 76 55 27 26 23 32 31 31 53 50 49 51 14 65 286 313 60 102 321 285 219 167 161 199 215 210 142 115 129 163 187 145 118 277 197 167 202 241 239 177 147 142 145 143 135 127 117 114
228 226 224 227 228 227 234 234 229 228 226 221 222 222 221 225 221 216 218 233 251 266 276 282 290 288 300 308 315 348 93 251 215 170 162 148 135 126 114 98 76 49 18 39 32 40 51 39 57 107 74 59 120 119 75 348 39 94 161 294 303 169 165 179 180 173 139 143 182 173 123 145 166 204 203 187 228 247 165 108 115 125 132 131 124 126 129 128
231 226 222 227 228 231 234 234 235 238 239 233 232 227 223 226 223 214 215 230 239 254 263 269 280 280 304 311 309 14 3 253 186 172 171 155 147 141 132 119 92 56 48 38 27 45 66 51 70 132 79 78 144 120 66 19 28 77 158 247 332 297 228 217 176 159 162 168 169 112 133 218 198 165 203 217 214 190 145 105 109 119 119 123 123 127 133 132
231 229 222 229 234 234 228 229 230 235 252 248 242 237 231 226 221 213 216 231 232 245 254 255 265 274 304 342 84 61 284 216 176 176 174 167 166 165 167 143 136 178 74 39 29 57 71 95 189 171 140 183 121 105 42 46 337 173 156 214 325 315 298 282 213 205 207 197 146 141 254 261 242 204 266 215 186 182 133 108 116 120 116 123 127 134 137 137
226 231 228 231 236 237 219 217 225 230 258 255 249 247 244 236 223 212 215 228 236 242 246 246 254 262 296 24 86 141 242 176 175 177 175 180 182 183 193 187 211 208 105 44 42 63 91 164 205 152 133 137 100 89 26 91 188 173 140 191 230 301 297 190 218 236 234 262 181 184 238 280 313 255 250 224 183 170 126 122 132 122 128 137 132 138 138 144
224 226 232 235 240 271 239 236 237 241 261 263 259 251 248 247 229 215 218 225 231 232 234 241 247 256 291 73 113 197 206 164 174 177 180 188 189 196 204 211 221 206 173 80 79 84 99 167 176 126 112 77 89 28 357 130 135 128 126 259 301 327 306 213 221 241 197 265 191 163 231 298 359 249 230 205 174 165 143 148 156 136 145 147 141 140 136 145
228 226 230 236 245 268 258 249 249 265 278 280 272 258 249 246 234 219 220 221 220 220 222 227 239 253 328 65 165 212 199 175 179 181 187 192 191 198 201 212 217 198 197 138 118 104 81 65 92 97 191 148 112 23 8 143 105 111 79 346 309 348 324 243 227 210 165 209 176 136 315 296 226 230 246 182 158 156 149 160 170 158 160 154 148 145 144 148
234 230 230 235 240 248 250 248 254 266 281 296 295 281 261 247 237 223 216 212 206 208 211 208 228 221 82 265 234 217 205 188 186 187 187 189 191 196 194 199 202 182 178 133 120 95 71 45 90 110 138 112 129 218 120 59 63 21 50 59 305 357 322 269 256 149 159 189 162 136 289 275 244 248 258 170 154 146 158 177 181 172 171 166 160 151 158 160
244 241 238 237 234 236 242 244 252 265 280 302 307 297 283 262 239 215 204 204 196 197 202 192 196 124 101 247 247 221 210 198 193 188 181 184 184 182 181 179 183 173 155 121 103 61 57 67 87 97 91 93 144 122 46 13 29 350 1 30 344 3 281 288 329 145 159 211 145 124 213 261 268 268 228 182 165 158 174 190 184 183 181 175 173 161 171 180
250 250 249 247 240 230 232 236 244 259 274 296 303 298 293 268 230 206 194 190 182 188 194 185 178 122 76 282 266 215 206 202 196 187 181 185 178 169 169 169 171 161 153 152 128 74 71 88 85 93 39 22 68 78 30 352 11 35 347 314 331 185 265 304 281 164 160 223 139 127 202 265 275 263 199 178 175 172 182 193 189 189 186 181 182 169 172 187
250 253 253 254 252 233 226 232 236 246 264 290 301 297 283 238 202 183 178 173 170 174 149 127 153 121 94 275 255 206 204 202 194 185 181 183 184 172 158 156 153 145 140 127 139 131 84 69 70 112 128 55 75 90 48 8 339 355 149 248 270 194 273 317 299 199 157 134 181 190 218 261 284 281 191 177 183 184 189 200 196 195 192 185 183 175 171 173
248 254 257 255 251 234 224 230 235 245 268 301 306 296 247 189 167 156 156 155 155 147 111 97 119 118 197 227 199 232 202 192 189 181 179 182 188 173 152 137 119 125 109 92 114 112 52 44 50 274 68 71 102 98 61 325 285 315 321 232 249 208 222 292 300 294 143 144 201 224 237 246 265 289 203 199 189 187 202 207 202 200 195 189 182 179 178 173
248 252 256 254 247 234 225 224 230 246 286 313 307 264 133 122 124 130 143 147 127 92 67 82 109 124 258 217 190 208 174 178 179 173 177 175 173 167 146 127 125 115 87 58 62 68 22 19 58 62 33 46 119 110 146 228 210 195 197 211 256 241 220 246 275 248 158 172 204 203 238 253 261 263 215 216 200 197 215 212 206 206 196 191 187 185 187 180
246 249 251 251 245 234 222 213 218 237 282 305 280 131 105 85 91 121 147 146 133 118 193 209 161 153 237 216 165 124 133 154 162 169 172 161 162 160 121 111 110 100 99 82 335 45 91 47 63 114 192 211 188 170 193 205 174 169 177 168 194 237 249 232 251 243 181 178 220 206 224 243 251 252 226 217 209 209 226 224 214 212 199 194 193 194 191 186
243 245 248 249 243 229 213 208 213 222 256 277 206 130 107 102 79 283 200 184 209 197 152 192 190 172 278 206 135 122 124 133 142 174 175 165 162 149 94 77 63 56 123 155 198 225 113 133 178 192 208 207 195 198 206 184 146 142 141 161 199 223 265 254 258 272 186 168 240 220 224 241 244 250 240 209 198 216 230 229 224 211 201 200 198 197 190 185
240 240 243 246 242 221 204 204 205 205 237 247 211 158 170 164 142 229 217 245 253 245 251 220 205 238 294 165 154 143 127 110 52 180 177 173 157 148 155 77 82 41 218 156 140 51 110 173 217 219 212 201 193 202 209 184 157 164 168 222 257 229 254 259 250 281 177 169 257 242 234 249 244 251 252 185 179 219 220 217 223 212 204 205 199 197 186 171
237 238 237 236 241 221 198 198 200 206 235 231 222 238 249 184 93 42 166 258 263 243 237 238 249 278 272 179 172 162 101 104 169 211 178 168 157 171 181 100 139 191 186 119 98 86 177 221 233 226 195 158 189 194 187 204 214 224 214 237 266 247 271 280 266 287 168 178 257 271 256 255 251 252 251 203 196 223 220 213 219 209 203 206 196 190 176 166
233 235 234 228 237 219 194 200 205 211 230 218 218 228 233 98 72 33 106 205 290 244 221 219 223 234 231 212 189 181 147 156 173 219 183 162 160 186 151 142 178 160 132 159 160 166 196 247 240 214 151 150 199 185 156 184 229 219 208 207 250 249 253 276 285 303 278 224 262 287 280 264 261 266 257 231 217 229 230 220 224 215 208 206 196 189 178 174
230 231 232 225 231 211 192 206 206 208 224 225 229 220 167 122 106 45 56 233 293 262 217 207 207 204 201 207 188 180 204 192 166 193 185 165 143 163 160 168 169 142 179 195 186 191 212 248 237 162 158 175 196 198 166 177 242 233 209 199 227 237 221 234 283 323 329 333 328 309 298 272 239 243 251 243 221 239 238 218 227 226 214 197 186 192 187 179
227 227 227 220 222 200 188 209 211 208 216 229 234 218 180 134 79 41 47 16 283 280 266 205 197 207 198 184 172 170 187 229 206 181 180 172 153 145 182 170 145 183 205 193 189 222 235 244 95 126 166 176 180 209 196 184 217 259 224 206 218 225 224 231 323 7 353 324 314 353 296 278 242 228 248 261 248 248 231 214 226 222 201 186 188 193 186 181
226 224 221 216 211 192 188 213 213 207 209 228 231 211 194 190 86 27 74 43 284 258 178 187 183 190 185 164 157 144 95 243 239 162 172 180 171 140 162 168 107 204 194 169 191 237 228 213 134 131 159 168 182 221 217 182 182 258 237 207 210 205 207 218 179 41 271 267 295 72 198 275 280 216 232 241 240 252 241 230 235 219 199 200 197 191 180 177
224 222 217 212 205 192 192 200 192 191 198 238 231 205 202 207 205 278 76 33 283 198 140 199 188 167 172 165 155 137 201 221 102 142 171 183 189 117 150 186 152 196 172 134 230 252 183 195 184 155 147 164 188 221 217 173 161 244 244 175 178 183 200 211 189 209 234 264 312 47 127 276 281 243 209 193 204 253 256 246 244 224 210 211 200 190 182 178
221 220 214 209 205 198 197 174 173 187 193 212 216 196 197 197 197 190 88 191 277 138 132 243 164 140 144 158 154 138 232 175 116 196 192 161 190 89 185 203 178 185 175 150 219 263 155 179 194 182 173 190 203 212 189 158 171 246 203 131 143 163 175 153 156 203 282 353 297 231 131 257 277 275 133 188 214 248 256 250 247 229 214 215 202 191 180 176
218 215 212 208 206 204 208 202 182 201 208 189 97 187 178 168 174 81 79 205 263 99 134 125 138 128 111 144 162 128 39 53 126 224 28 117 177 68 183 202 158 174 201 189 210 249 155 190 192 176 181 206 209 215 172 161 196 219 126 97 71 74 76 82 120 134 49 311 243 203 164 230 271 253 108 132 231 241 250 251 252 229 210 211 195 183 172 168
216 213 209 201 200 203 210 218 216 219 217 214 224 170 159 146 138 113 181 216 237 191 171 129 165 162 145 151 174 24 91 51 45 100 53 82 45 31 148 156 97 141 231 291 238 252 302 268 193 165 181 188 157 94 153 173 177 134 97 64 43 34 35 48 56 81 43 276 229 186 179 190 272 269 160 194 220 225 236 256 271 237 204 205 187 179 175 171
214 211 205 197 199 198 199 220 219 211 217 217 196 152 149 117 76 172 207 231 336 197 138 157 190 143 154 159 165 181 131 75 159 141 136 147 87 52 80 111 79 97 287 297 288 308 332 337 254 224 165 125 103 82 28 35 115 106 88 81 64 351 8 22 357 53 211 263 227 184 183 185 233 260 226 236 259 240 219 240 265 243 209 203 189 183 179 172
215 211 206 201 202 196 195 214 207 201 210 198 174 154 156 154 199 215 213 96 309 204 161 170 187 152 163 168 174 176 153 149 182 163 160 158 170 184 190 192 169 126 245 239 249 322 299 237 253 300 197 136 119 103 28 12 61 91 103 108 114 309 0 0 315 188 221 264 266 184 180 202 238 257 257 256 267 261 229 227 249 240 216 202 188 182 176 170
215 211 207 204 202 199 202 208 197 198 199 172 163 177 206 180 197 211 204 183 214 207 143 135 152 157 163 170 187 170 133 174 179 168 169 147 173 209 229 221 186 155 194 194 190 197 268 293 298 171 256 186 154 158 172 207 161 148 145 140 155 167 200 252 249 257 252 274 298 179 175 253 273 270 247 243 255 267 254 241 244 238 222 204 187 175 167 169
214 209 206 206 205 204 204 201 196 197 186 163 156 190 219 213 207 203 208 210 203 52 86 128 136 153 169 178 189 165 151 216 178 156 168 148 165 212 231 235 209 164 104 144 174 180 212 287 210 180 215 186 180 188 170 143 157 180 155 139 162 164 173 215 208 224 253 284 303 256 174 209 205 249 242 238 264 288 280 263 257 251 228 188 167 161 162 172
215 208 206 205 205 206 202 195 196 193 179 164 167 185 198 212 214 213 215 201 168 52 46 108 120 140 191 240 251 184 165 202 177 148 170 175 184 198 196 211 202 165 131 171 211 167 196 265 237 209 185 168 181 194 125 108 140 228 113 120 185 182 174 209 200 181 182 293 289 223 219 221 205 264 267 252 275 284 288 295 294 267 197 146 155 167 170 176
209 205 205 203 202 203 198 191 190 189 180 167 188 196 198 204 208 217 211 174 171 140 110 101 106 148 200 217 249 216 175 115 156 159 196 201 216 205 197 209 194 183 180 176 182 161 175 274 275 355 27 175 181 170 135 140 175 160 129 175 199 153 157 205 261 130 114 270 263 194 240 284 306 281 283 269 265 269 282 289 256 231 175 160 175 179 177 180
201 200 201 203 203 198 194 189 184 185 184 181 199 200 201 210 211 207 189 164 152 135 136 169 181 169 190 195 208 205 185 107 156 176 192 194 235 205 197 222 194 196 202 181 187 197 161 255 281 102 172 253 283 107 74 21 138 132 181 198 150 62 115 146 267 327 101 256 270 201 230 264 237 267 319 21 264 260 261 255 244 234 200 192 194 184 182 179
202 197 201 206 202 193 191 189 180 179 185 207 208 205 204 214 215 203 177 133 135 145 166 201 196 174 181 194 199 185 179 176 174 185 180 189 241 199 179 200 202 200 206 185 217 246 148 222 295 70 168 292 356 94 57 354 80 131 193 186 122 130 197 129 193 224 197 241 280 251 233 233 202 224 297 267 236 249 253 241 232 226 208 202 199 184 178 169
208 199 218 210 197 188 189 188 181 178 193 202 204 207 210 217 214 199 176 158 160 165 188 208 204 189 187 184 172 172 187 185 168 178 188 189 231 203 176 188 202 200 199 181 188 226 121 192 269 341 293 318 14 127 175 220 345 53 124 155 112 148 175 165 181 175 166 214 259 289 284 240 221 209 208 225 231 236 242 234 227 224 209 202 194 179 178 177
208 220 264 200 190 186 187 186 184 192 204 200 201 206 216 219 208 193 190 187 180 178 201 210 205 196 194 184 172 174 191 191 173 181 202 192 209 225 189 182 179 185 186 185 194 178 112 197 234 321 332 185 192 207 191 188 182 149 156 171 176 127 106 182 222 140 142 178 210 281 288 256 242 210 197 220 234 232 233 231 234 228 206 201 194 182 186 184
200 237 290 183 185 184 182 185 201 204 202 206 208 214 225 223 196 197 203 198 199 211 201 206 208 202 185 179 190 183 176 188 187 188 209 203 203 229 203 183 169 155 157 183 206 195 168 186 170 166 221 203 222 244 217 202 193 179 186 186 180 167 141 182 241 195 147 187 179 211 271 259 237 196 200 223 243 251 246 239 249 239 199 201 197 186 190 188
203 223 195 179 183 178 174 192 207 196 205 207 207 213 216 188 173 198 201 191 208 229 183 196 209 204 189 184 193 182 168 180 190 191 212 211 204 215 210 188 165 151 150 169 202 192 141 122 140 177 210 216 237 261 234 222 199 161 193 188 176 185 177 184 223 208 165 219 160 129 276 276 252 192 209 236 251 270 266 244 253 245 197 196 194 186 192 192
222 222 209 179 181 176 174 208 195 198 213 205 209 215 202 190 194 191 192 196 202 188 184 206 205 204 205 186 173 178 179 186 193 196 209 214 211 216 196 174 155 152 156 156 176 162 113 131 163 203 292 304 302 304 329 45 114 153 217 189 182 205 199 188 202 174 173 209 154 143 258 265 283 230 226 254 262 270 264 241 240 235 195 183 187 185 188 188
206 216 303 182 184 184 195 208 195 204 207 199 204 209 216 227 208 194 193 199 202 174 183 214 213 212 211 165 159 183 186 192 205 204 203 205 212 217 153 172 169 165 173 177 170 171 177 171 152 151 272 326 324 274 256 250 185 199 219 197 196 204 188 177 117 118 219 205 167 198 245 234 267 292 283 302 311 298 276 255 234 223 197 181 184 181 182 182
118 197 358 193 192 196 221 214 202 209 204 201 199 200 211 225 214 210 204 200 205 191 189 206 179 181 196 164 165 183 191 203 210 203 204 206 222 349 62 198 196 187 198 193 164 165 175 169 160 179 210 222 222 215 206 190 180 199 196 186 198 200 189 190 182 188 230 197 168 209 243 235 280 306 296 308 324 301 283 283 257 228 205 187 184 179 181 180
134 206 199 199 211 223 258 259 226 213 205 204 201 200 205 210 213 211 204 208 217 208 205 203 140 151 185 185 184 192 204 214 207 180 196 197 202 247 227 320 210 201 212 143 153 150 135 177 191 198 214 222 221 211 156 133 153 203 202 189 196 203 196 191 206 213 202 155 196 222 235 255 269 258 255 276 279 270 274 275 254 236 213 196 187 179 178 177
174 203 178 173 197 215 232 249 234 224 212 197 193 199 203 208 211 196 194 211 215 208 215 224 161 181 191 190 203 209 205 208 190 172 193 190 178 279 196 105 125 240 71 148 163 141 107 206 209 206 222 226 192 168 170 159 179 202 201 198 201 200 192 191 214 217 153 149 241 225 192 245 259 245 236 245 237 243 252 242 234 221 198 184 171 167 171 173
188 191 178 170 154 202 220 223 207 222 232 208 199 205 205 210 208 189 195 211 210 203 208 214 213 212 204 194 202 208 192 196 208 202 191 174 149 130 92 69 289 310 35 150 170 123 135 212 213 201 222 226 146 141 188 172 184 203 200 203 201 194 192 198 216 217 168 195 244 216 167 230 249 245 237 230 217 227 233 222 204 170 163 165 161 171 179 176
170 140 191 181 177 191 199 188 168 202 234 224 214 213 207 211 211 204 194 194 203 206 201 210 222 220 211 201 198 201 196 198 211 209 186 160 161 153 145 205 234 245 123 158 181 146 160 206 196 186 220 228 177 161 185 166 176 210 209 210 202 195 197 200 215 219 199 221 243 231 224 243 245 221 229 230 213 216 194 146 150 151 159 165 168 179 185 181
166 137 185 174 187 180 168 166 161 186 227 226 218 212 205 211 214 213 200 184 194 200 198 213 223 217 209 206 204 211 212 207 210 206 176 164 183 189 188 191 170 157 164 172 187 204 192 192 151 151 218 235 198 178 192 182 185 216 229 221 203 197 203 206 218 218 206 229 240 239 251 258 242 172 217 213 139 147 144 151 164 165 167 170 177 187 187 186
266 313 287 166 191 184 172 179 177 183 201 199 202 197 198 218 218 216 213 204 203 199 195 211 220 215 205 208 210 220 222 215 212 202 180 181 191 190 191 183 152 152 168 173 169 179 191 191 114 135 208 231 192 179 198 186 165 247 249 229 193 184 201 208 217 212 204 221 233 235 248 253 239 133 138 163 159 167 173 174 171 177 181 176 181 188 188 190
289 319 315 217 202 187 177 176 173 187 202 186 188 191 195 219 226 223 229 229 222 218 211 216 219 209 194 206 215 224 225 212 199 185 181 188 176 124 131 148 148 155 163 164 160 161 168 170 150 167 204 230 188 172 178 141 121 258 252 215 178 189 208 208 216 218 211 213 218 222 236 244 215 147 159 194 200 192 189 184 178 185 188 184 185 186 188 195